Location: *
(51.1248°S, 108.4023°W)
Time: 05:04:41
(UTC+00:00)

USA 267 - Pass Details

Date: 15 June 2021
Orbit: 1102 x 1106 km, 123.0° (Epoch: 28 July)

Event Time Altitude Azimuth Distance (km) Brightness Sun altitude
Rises 13:16:57 0° 118° (ESE) 3,954 6.9 -17.5°
Reaches altitude 10° 13:19:27 10° 119° (ESE) 2,994 6.2 -17.2°
Maximum altitude 13:26:02 73° 201° (SSW) 1,168 3.3 -16.2°
Enters shadow 13:31:33 15° 283° (WNW) 2,588 4.7 -15.4°
